Other Surface Observations
Issued by NWS

Home | Current Version | Previous Version | Text Only | Print | Product List | Glossary On
Versions: 1 2 3 4 5 6 7 8 9 10 11 12 13 14 15 16 17 18 19 20 21 22 23 24 25 26 27 28 29 30 31 32 33 34 35 36 37 38 39 40 41 42 43 44 45 46 47 48 49 50
000
SXUS52 KTAE 221418
OSOTAE
OSOTAE
North Florida/South Alabama/Southwest Georgia Weather Roundup
National Weather Service Tallahassee Florida
1000 AM EDT TUE JUL 22 2014

Note: "fair" indicates few or no clouds below 12,000 feet with no
significant weather and/or obstructions to visibility.

!FLZ017-115-028-034-025-221500
...North Florida...

CITY           SKY/WX    TMP DP  RH WIND       PRES   REMARKS
TALLAHASSEE    MOSUNNY   83  69  62 E3        30.09S
APALACHICOLA   PTSUNNY   84  74  71 E9        30.07S HX  91
PERRY          SUNNY     79  72  78 SE5       30.09S
CROSS CITY       N/A     82  73  74 E5        30.09R
HOMERVILLE     CLOUDY    81  73  78 NW3       30.11S
JACKSONVILLE   PTSUNNY   82  75  79 NW3       30.09S
$$

!FLZ112-006-005-002-011-221500
...Florida Panhandle...

CITY           SKY/WX    TMP DP  RH WIND       PRES   REMARKS
MARIANNA       CLOUDY    78  75  90 SE3       30.08S
BONIFAY        FAIR      80  72  76 SE6       30.10R
PANAMA CITY NW FAIR      82  73  74 E7        30.07R
TYNDALL AFB    MOSUNNY   81  74  79 SE6       30.08S
TYND DRONE APT FAIR      81  75  81 E7        30.06S
DE FUNIAK SPR  FAIR      77  73  86 SE5       30.09R
EGLIN AFB      TSTM      81  75  81 SE3       30.06S
DESTIN         MOSUNNY   82  76  81 SE6       30.06R
HURLBURT       MOSUNNY   81  72  74 E3        30.05R
CRESTVIEW      MOSUNNY   81  74  79 SE5       30.08S
PENSACOLA      MOSUNNY   80  75  84 SE8       30.04S THUNDER
$$

!ALZ063-066-221500
...South Alabama...

CITY           SKY/WX    TMP DP  RH WIND       PRES   REMARKS
DOTHAN         MOSUNNY   78  73  84 VRB5      30.14R
OZARK CAIRNS   PTSUNNY   78  73  85 E5        30.10R
FT RUCKER HELI CLOUDY    79  71  76 VRB3      30.09R
RUCKER HELI 3  FAIR      80  72  76 SE8       30.12S
RUCKER HELI 2  CLOUDY    78  72  81 SE6       30.10R
FLORALA APT    PTSUNNY   81  73  78 E5        30.10R
ANDALUSIA      PTSUNNY   83  73  72 SE5       30.08F
TROY           PTSUNNY   78  72  81 E7        30.11F
EUFALA         RAIN      75  73  94 N3        30.11S FOG
MOBILE         PTSUNNY   81  76  84 NE6       30.05R HAZE
$$

!GAZ120>161-221500
...Southwest and South Central Georgia...

CITY           SKY/WX    TMP DP  RH WIND       PRES   REMARKS
THOMASVILLE    CLOUDY    79  72  78 CALM      30.11F
BAINBRIDGE     MOSUNNY   81  75  83 CALM      30.10S
MOODY AFB      MOSUNNY   77  75  94 CALM      30.11R
VALDOSTA       PTSUNNY   83  70  64 CALM      30.10S
MOULTRIE       SUNNY     77  73  88 CALM      30.12S
BLAKELY        CLOUDY    81  73  78 E3        30.11S
ALBANY         CLOUDY    77  72  83 E3        30.14R
TIFTON         HVY RAIN  73  72  97 CALM      30.12S
FITZGERALD     PTSUNNY   81  73  76 CALM      30.14S
CORDELE        PTSUNNY   80  72  76 CALM      30.12F
AMERICUS       CLOUDY    73  72  94 CALM      30.15S
$$

!GMZ750-755-770-775-221500
...Coastal and Buoy Obs...

STATION/POSITION TIME  TEMP    WIND        PRES    VSBY  WAVE
                       AIR SEA DIR/SP/G                  HT/PER
                 (UTC) (F)     (DEG/KT/KT) (MB)    (MI)  (FT/S)
KEATON BEACH     1400   79     240/  2/  3 1018.8R
CEDAR KEY        1400   78     120/  6/  7 1019.0R
C TOWER          1400   81     160/  3/  3 1018.3R
APALACHICOLA BUO 1400   82 84  200/  4/  4 1018.2R         1/ 4
PANAMA CITY BUOY 1306   82 83  170/  8/ 10 1017.7          1/ 5
MOBILE BUOY      1306   81 83  330/  6/  8 1017.5R
ORANGE BCH AL BU 1400   82 82  260/  4/  6 1017.2R         1/ 4
$$



USA.gov is the U.S. government's official web portal to all federal, state and local government web resources and services.